[[{"header":{"parameterUnit":"m.s-1","parameterCategory":1,"la1":30.2991,"la2":30.254,"lo1":-89.0895,"lo2":-89.0444,"dy":0.0017,"dx":0.0017,"nx":28,"ny":28,"refTime":"2024-07-25T09:00:00:Z","depth":0,"parameterNumber":2,"parameterNumberName":"U-component_of_WINDS"},"data":[0,0,0,0,0,0,0,0,0,0,0,0,0,0,0,0,0,0,0,0,0,0,0,0,0,0,0,0,0,0,0,0,0,0,0,0,0,0,0,0,0,0,0,0,0,0,0,0,0,0,0,0,0,0,0,0,0,0,0.4286,0.4286,0,0.4321,0.4321,0.4321,0.4327,0.4327,0.4327,0.4326,0.4361,0.4362,0.4363,0,0,0,0,0,0,0,0,0,0,0,0,0,0.4223,0.4224,0.4286,0.4286,0.4287,0.4321,0.4321,0.4322,0.4327,0.4327,0.4327,0.4326,0.4361,0.4362,0.4363,0,0,0,0,0,0,0,0,0,0,0,0,0,0.4253,0.4224,0.4286,0.4294,0.4295,0.432,0.4321,0.4322,0.4327,0.4327,0.4326,0.4326,0.436,0.4362,0.4364,0.4384,0,0,0.4369,0.437,0,0,0,0,0,0,0,0,0.4251,0.4255,0.4292,0.4293,0.4294,0.4319,0.4311,0.4342,0.4327,0.4315,0.4326,0.4326,0.4347,0.435,0.4358,0.4385,0.4387,0.4369,0.437,0.4371,0.4372,0,0,0,0,0,0,0,0.4249,0.4254,0.43,0.4293,0.4294,0.4295,0.4299,0.4317,0.4333,0.4316,0.4317,0.4321,0.4348,0.4356,0.4358,0.4387,0.4369,0.4371,0.4372,0.4373,0.4431,0.4431,0,0,0,0,0,0,0.4246,0.4252,0.4299,0.4301,0.4271,0.4296,0.4301,0.4312,0.4333,0.4336,0.4321,0.4321,0.4353,0.4356,0.436,0.4383,0.4371,0.4373,0.4374,0.443,0.4431,0.4432,0,0,0,0,0,0,0.4244,0.425,0.4297,0.4277,0.4283,0.4298,0.431,0.4313,0.4321,0.4337,0.4339,0.4326,0.4353,0.4357,0.4377,0.4385,0.4374,0.4375,0.443,0.4431,0.4431,0.4431,0,0,0,0,0,0,0.4243,0.4249,0.4258,0.4277,0.4284,0.4315,0.4311,0.4314,0.4324,0.4324,0.4342,0.4345,0.4353,0.4375,0.4379,0.4387,0.4377,0.4429,0.443,0.4431,0.4431,0.4432,0.4433,0,0,0,0,0,0.424,0.4257,0.4258,0.4264,0.4294,0.4315,0.4319,0.4328,0.4324,0.4332,0.4342,0.4345,0.4383,0.4377,0.4382,0.439,0.4429,0.443,0.4431,0.443,0.4432,0.4433,0,0,0,0,0,0,0.4238,0.4259,0.4261,0.4284,0.4298,0.4316,0.4327,0.4329,0.4344,0.4343,0.4353,0.4358,0.4377,0.4386,0.4378,0.441,0.4406,0.4408,0.4403,0.4405,0.4406,0.4403,0.4378,0,0,0,0,0,0.424,0.4256,0.4273,0.4292,0.4298,0.4311,0.4321,0.4326,0.434,0.4346,0.4358,0.4371,0.4386,0.4396,0.4411,0.4432,0.4435,0.444,0.4441,0.4442,0.4444,0.4454,0.4456,0.4435,0.4435,0.4435,0,0,0.4245,0.4258,0.4268,0.4291,0.4303,0.4318,0.4316,0.4332,0.4343,0.4349,0.4368,0.4377,0.4393,0.4413,0.4422,0.4421,0.445,0.4444,0.4444,0.4445,0.4455,0.4457,0.4459,0.4436,0.4436,0.4436,0,0,0.4261,0.4273,0.4289,0.43,0.4317,0.4325,0.4329,0.4347,0.4353,0.4372,0.4376,0.4389,0.4415,0.4426,0.4435,0.4453,0.4455,0.4457,0.4463,0.4473,0.4475,0.4476,0.4482,0.4484,0.4459,0.4459,0.4459,0,0.4264,0.4288,0.4297,0.4313,0.4322,0.4328,0.4343,0.4353,0.4374,0.438,0.4378,0.441,0.4421,0.4443,0.4448,0.4455,0.4459,0.4455,0.4474,0.4475,0.4477,0.4482,0.4484,0.4459,0.4459,0.4459,0.4459,0,0.429,0.4306,0.4317,0.4337,0.4348,0.4363,0.4374,0.4384,0.4388,0.4396,0.4415,0.4429,0.4446,0.4451,0.4456,0.4474,0.4472,0.4472,0.4468,0.4479,0.4484,0.4486,0.4459,0.4459,0.4459,0.4459,0,0,0.4306,0.433,0.4333,0.4342,0.436,0.4372,0.4388,0.4404,0.4412,0.4426,0.4438,0.446,0.4459,0.4469,0.4475,0.4483,0.4496,0.4482,0.4482,0.4483,0.4515,0.4514,0.4517,0.4497,0.4498,0.4498,0.4513,0,0.4323,0.4351,0.4359,0.4382,0.4396,0.4401,0.4414,0.4426,0.4434,0.4446,0.4455,0.4469,0.4468,0.4474,0.4483,0.4492,0.4502,0.4491,0.4508,0.4508,0.4503,0.4519,0.4519,0.4533,0.4515,0.4516,0.4516,0,0.4347,0.4361,0.4385,0.4401,0.4407,0.4419,0.4434,0.4446,0.446,0.4464,0.4475,0.4479,0.4495,0.449,0.4511,0.4503,0.451,0.4516,0.4516,0.4518,0.4512,0.452,0.4538,0.4539,0.4519,0.4519,0.4519,0,0.4355,0.438,0.4397,0.4404,0.4423,0.4431,0.4439,0.4452,0.4461,0.4474,0.448,0.4495,0.4502,0.4513,0.4521,0.4517,0.4541,0.4537,0.4544,0.4544,0.4549,0.4548,0.4567,0.4555,0.4555,0.4555,0.4554,0,0.4373,0.4387,0.4401,0.4411,0.4427,0.4436,0.4451,0.4459,0.4471,0.4482,0.4488,0.4498,0.4509,0.452,0.4527,0.4542,0.4546,0.455,0.4551,0.4549,0.4548,0.4553,0.4552,0.4555,0.4555,0.4555,0.4555,0,0.4384,0.4394,0.4413,0.4428,0.4433,0.4444,0.4457,0.4467,0.4474,0.4489,0.4493,0.4505,0.4519,0.4528,0.4546,0.4551,0.4567,0.4569,0.4562,0.4563,0.4569,0.4568,0.4591,0.4594,0.4581,0.4581,0.4581,0,0.4394,0.4405,0.4422,0.443,0.4438,0.4452,0.4461,0.4469,0.4478,0.4494,0.4502,0.4516,0.4528,0.4551,0.4561,0.4574,0.4576,0.4583,0.4578,0.4575,0.4575,0.4574,0.4574,0.4583,0.4583,0.4583,0.4583,0,0.4411,0.4415,0.4428,0.4443,0.4453,0.4465,0.4476,0.4483,0.4493,0.4503,0.4517,0.4527,0.4545,0.4559,0.4573,0.4581,0.4584,0.4585,0.4587,0.4585,0.458,0.4582,0.4564,0.4584,0.4584,0.4584,0.4584,0.4584,0.4422,0.4431,0.4444,0.4458,0.4468,0.4478,0.4488,0.4497,0.4509,0.4524,0.4529,0.4543,0.4556,0.4575,0.4583,0.4594,0.4593,0.4597,0.4598,0.4598,0.4598,0.4579,0.4597,0.4597,0.4597,0.4597,0.4597,0,0.4438,0.4447,0.4459,0.4475,0.4486,0.4487,0.45,0.4509,0.4522,0.4533,0.4544,0.456,0.4574,0.4584,0.4598,0.4605,0.4606,0.4608,0.4607,0.4609,0.4598,0.4595,0.4606,0.4606,0.4606,0.4606,0.4606,0.4606,0.4448,0.4464,0.4469,0.4489,0.4498,0.4512,0.4519,0.4528,0.4537,0.4555,0.4566,0.4573,0.4583,0.4598,0.461,0.4612,0.4617,0.4618,0.4621,0.4611,0.461,0.4609,0.4605,0.4619,0.4619,0.463,0.463,0.463]},{"header":{"parameterUnit":"m.s-1","parameterCategory":1,"la1":30.2991,"la2":30.254,"lo1":-89.0895,"lo2":-89.0444,"dy":0.0017,"dx":0.0017,"nx":28,"ny":28,"refTime":"2024-07-25T09:00:00:Z","depth":0,"parameterNumber":3,"parameterNumberName":"V-component_of_WINDS"},"data":[0,0,0,0,0,0,0,0,0,0,0,0,0,0,0,0,0,0,0,0,0,0,0,0,0,0,0,0,0,0,0,0,0,0,0,0,0,0,0,0,0,0,0,0,0,0,0,0,0,0,0,0,0,0,0,0,0,0,0.5298,0.5298,0,0.5329,0.5329,0.5329,0.5293,0.5291,0.529,0.5288,0.532,0.5322,0.5324,0,0,0,0,0,0,0,0,0,0,0,0,0,0.5206,0.5208,0.5298,0.5298,0.5299,0.5329,0.5329,0.533,0.5293,0.5291,0.5289,0.5288,0.532,0.5322,0.5325,0,0,0,0,0,0,0,0,0,0,0,0,0,0.5242,0.5208,0.5298,0.5284,0.5283,0.5329,0.5329,0.533,0.5293,0.5291,0.5289,0.5287,0.5319,0.5322,0.5325,0.5386,0,0,0.5335,0.5336,0,0,0,0,0,0,0,0,0.524,0.5246,0.5286,0.5285,0.5284,0.5305,0.5308,0.5348,0.5294,0.5289,0.5288,0.5286,0.5317,0.532,0.533,0.5387,0.5389,0.5335,0.5337,0.5338,0.5339,0,0,0,0,0,0,0,0.5238,0.5244,0.531,0.5286,0.5285,0.5276,0.5279,0.5316,0.5314,0.529,0.5287,0.5291,0.5316,0.5327,0.5331,0.5389,0.5335,0.5338,0.534,0.5341,0.5496,0.5498,0,0,0,0,0,0,0.5237,0.5242,0.5309,0.5311,0.5257,0.5279,0.5282,0.53,0.5314,0.5314,0.5293,0.5289,0.5323,0.5327,0.5332,0.5403,0.5338,0.5341,0.5343,0.5494,0.5496,0.5499,0,0,0,0,0,0,0.5235,0.5243,0.5308,0.5276,0.5283,0.5283,0.5303,0.5302,0.5313,0.5316,0.5316,0.5305,0.5321,0.5327,0.5372,0.5404,0.5343,0.5346,0.5491,0.5495,0.5498,0.5547,0,0,0,0,0,0,0.5233,0.5243,0.5266,0.5277,0.5285,0.5349,0.5305,0.5304,0.5319,0.5314,0.5327,0.5327,0.532,0.5368,0.5375,0.5407,0.5348,0.5488,0.5493,0.5497,0.5543,0.5552,0.556,0,0,0,0,0,0.5229,0.528,0.5268,0.5276,0.5315,0.535,0.5355,0.5346,0.5321,0.5345,0.5346,0.5327,0.5399,0.5373,0.5381,0.5414,0.5486,0.5491,0.5496,0.5539,0.555,0.5559,0,0,0,0,0,0,0.5274,0.5281,0.5268,0.5323,0.5336,0.5344,0.5374,0.5358,0.5379,0.5374,0.5361,0.5365,0.5413,0.5418,0.5388,0.5473,0.5438,0.5445,0.5468,0.5479,0.5487,0.5485,0.5351,0,0,0,0,0,0.529,0.5318,0.5323,0.5371,0.5378,0.5375,0.539,0.5381,0.5395,0.54,0.5405,0.5419,0.5444,0.5462,0.5485,0.5543,0.5545,0.557,0.5578,0.5585,0.5591,0.5621,0.5632,0.5515,0.5515,0.5515,0,0,0.5324,0.5331,0.535,0.538,0.5389,0.5419,0.538,0.5413,0.5435,0.5405,0.5448,0.5452,0.5466,0.5518,0.554,0.5523,0.5624,0.5591,0.5597,0.5599,0.5627,0.5638,0.5648,0.5518,0.5518,0.5517,0,0,0.54,0.5409,0.5449,0.5459,0.5473,0.547,0.548,0.549,0.5491,0.5534,0.5512,0.5537,0.5581,0.5592,0.5604,0.5682,0.5664,0.569,0.5734,0.5763,0.5772,0.578,0.5808,0.5818,0.5696,0.5696,0.5696,0,0.5441,0.5484,0.5472,0.5506,0.552,0.5494,0.5534,0.5544,0.5566,0.5576,0.5556,0.561,0.5618,0.5671,0.569,0.57,0.571,0.5689,0.5772,0.578,0.5787,0.5814,0.5824,0.5699,0.5698,0.5698,0.5698,0,0.5533,0.5563,0.5594,0.5615,0.5632,0.5669,0.5662,0.568,0.5669,0.5668,0.5711,0.5719,0.5743,0.5755,0.5745,0.5806,0.5795,0.5774,0.5739,0.5802,0.5826,0.5836,0.5703,0.5702,0.5701,0.57,0,0,0.5641,0.5652,0.5664,0.5673,0.5685,0.5709,0.5744,0.5767,0.5783,0.5798,0.5827,0.5864,0.5844,0.5857,0.5847,0.5873,0.5934,0.5848,0.5848,0.5864,0.6001,0.6018,0.603,0.5922,0.5923,0.5925,0.6,0,0.5717,0.5779,0.5768,0.5828,0.5855,0.5829,0.586,0.5871,0.587,0.5893,0.5892,0.5918,0.589,0.5897,0.5921,0.5921,0.5961,0.5916,0.5949,0.595,0.5947,0.6042,0.606,0.6131,0.6009,0.6011,0.6012,0,0.5816,0.5834,0.5896,0.5903,0.5914,0.5942,0.5962,0.5984,0.5995,0.5992,0.6006,0.5991,0.6025,0.5989,0.6036,0.6005,0.6018,0.602,0.6022,0.6026,0.5986,0.6049,0.6153,0.6164,0.6027,0.6026,0.6025,0,0.5888,0.5928,0.597,0.5978,0.5987,0.6007,0.6012,0.6021,0.6035,0.6052,0.6061,0.6082,0.6093,0.6109,0.61,0.6075,0.6149,0.6112,0.6148,0.6148,0.6166,0.6165,0.6274,0.6172,0.6172,0.6172,0.6172,0,0.5976,0.6015,0.6002,0.6029,0.6071,0.6057,0.61,0.6101,0.6109,0.6134,0.6113,0.6137,0.6124,0.6147,0.6139,0.6179,0.6184,0.6183,0.6181,0.6186,0.6186,0.6195,0.619,0.6175,0.6174,0.6174,0.6173,0,0.6065,0.6058,0.6102,0.6106,0.6108,0.614,0.6143,0.6167,0.6164,0.6196,0.6203,0.6198,0.6223,0.6215,0.6243,0.6239,0.6289,0.628,0.6285,0.6284,0.632,0.6317,0.6439,0.6454,0.6342,0.6343,0.6344,0,0.6122,0.6151,0.6158,0.6173,0.618,0.6205,0.6219,0.6205,0.6221,0.6234,0.6256,0.628,0.6298,0.634,0.6339,0.636,0.6352,0.6393,0.6355,0.6358,0.6353,0.6352,0.6354,0.6401,0.6403,0.6404,0.6404,0,0.6224,0.6218,0.6239,0.6259,0.6276,0.629,0.6303,0.6317,0.6304,0.6322,0.6348,0.6362,0.639,0.6413,0.6432,0.6436,0.6419,0.6416,0.6426,0.6431,0.6433,0.6433,0.6307,0.6414,0.6413,0.6412,0.6412,0.6411,0.6299,0.6323,0.6331,0.6355,0.6363,0.6375,0.6397,0.6396,0.6417,0.6439,0.6429,0.6458,0.6467,0.649,0.6496,0.6519,0.6503,0.6517,0.6521,0.6524,0.6529,0.6429,0.6522,0.6522,0.6522,0.6521,0.6521,0,0.6399,0.6403,0.6425,0.6443,0.6461,0.6441,0.6454,0.6471,0.6497,0.6506,0.6524,0.6553,0.6575,0.6575,0.6595,0.6613,0.6606,0.6619,0.6618,0.662,0.6542,0.6532,0.6625,0.6625,0.6625,0.6625,0.6625,0.6625,0.6454,0.6494,0.6489,0.6533,0.6536,0.6564,0.6573,0.6584,0.6591,0.6624,0.6642,0.6642,0.6647,0.6667,0.6686,0.6685,0.6694,0.6711,0.6708,0.6635,0.6625,0.6615,0.6606,0.6713,0.6713,0.6783,0.6784,0.6784]}]]